This demonstration page uses our WeatherBlox Daily Observations layout. Learn more.

Left ArrowRight Arrow

Hourly Observations for December 12, 2020

Temp ( °F °C ) Dew Point ( °F °C ) Humidity (%) Winds ( mph kmh ) Pressure ( in mb ) Visibility ( mi km ) Precip ( " mm )
12:51 am 00:51 Clear 43 6.1 39 3.9 86 86 SE 8 13 29.99 1016 10 16.0934 0 0
1:51 am 01:51 Clear 40 4.4 38 3.3 93 93 E 5 7 29.98 1015 10 16.0934 0 0
2:51 am 02:51 Clear 41 5 37 2.8 86 86 ESE 6 9 29.98 1015 10 16.0934 0 0
3:51 am 03:51 Clear 38 3.3 36 2.2 93 93 ESE 3 6 29.98 1015 10 16.0934 0 0
4:51 am 04:51 Clear 37 2.8 34 1.1 89 89 Calm 29.97 1015 10 16.0934 0 0
5:51 am 05:51 Clear 35 1.7 33 0.6 93 93 WNW 5 7 29.99 1016 10 16.0934 0 0
6:51 am 06:51 Clear 36 2.2 34 1.1 93 93 Calm 29.98 1015 10 16.0934 0 0
7:51 am 07:51 Sunny 36 2.2 35 1.7 97 97 Calm 29.99 1016 10 16.0934 0 0
8:51 am 08:51 Sunny 43 6.1 37 2.8 80 80 Calm 29.99 1016 10 16.0934 0 0
9:51 am 09:51 Sunny 47 8.3 38 3.3 71 71 Calm 29.97 1015 10 16.0934 0 0
10:51 am 10:51 Sunny 53 11.7 39 3.9 59 59 Calm 29.93 1014 10 16.0934 0 0
11:51 am 11:51 Sunny 55 12.8 38 3.3 53 53 SE 6 9 29.89 1012 10 16.0934 0 0
12:51 pm 12:51 Sunny 57 13.9 38 3.3 49 49 VRB 3 6 29.85 1011 10 16.0934 0 0
1:51 pm 13:51 Sunny 59 15 35 1.7 41 41 VRB 3 6 29.82 1010 10 16.0934 0 0
2:51 pm 14:51 Sunny 59 15 35 1.7 41 41 WSW 7 11 29.8 1009 10 16.0934 0 0
3:51 pm 15:51 Sunny 59 15 35 1.7 41 41 W 8 13 29.8 1009 10 16.0934 0 0
4:51 pm 16:51 Sunny 57 13.9 37 2.8 47 47 W 7 11 29.83 1010 10 16.0934 0 0
5:51 pm 17:51 Clear 54 12.2 37 2.8 53 53 SW 6 9 29.82 1010 10 16.0934 0 0
6:51 pm 18:51 Clear 54 12.2 34 1.1 47 47 W 8 13 29.83 1010 10 16.0934 0 0
7:51 pm 19:51 Clear 55 12.8 32 0 42 42 NW 22 35 29.85 1011 10 16.0934 0 0
8:51 pm 20:51 Clear 52 11.1 33 0.6 49 49 W 16 26 29.88 1012 10 16.0934 0 0
9:43 pm 21:43 Mostly Cloudy 53 11.7 33 0.6 47 47 NW 21 33 29.9 1013 10 16.0934 0 0
9:51 pm 21:51 Partly Cloudy 52 11.1 33 0.6 49 49 NW 16 26 29.89 1012 10 16.0934 0 0
10:51 pm 22:51 Partly Cloudy 50 10 29 -1.7 44 44 NNW 18 30 29.93 1014 10 16.0934 0 0
11:51 pm 23:51 Cloudy 48 8.9 24 -4.4 39 39 NW 14 22 29.97 1015 10 16.0934 0 0

Powered by AerisWeather